Regional Weather Roundup
Issued by NWS

Home | Current Version | Previous Version | Graphics & Text | Print | Product List | Glossary On
Versions: 1 2 3 4 5 6 7 8 9 10 11 12 13 14 15 16 17 18 19 20 21 22 23 24 25 26 27 28 29 30 31 32 33 34 35 36 37 38 39 40 41 42 43 44 45 46 47 48 49 50
000
ASUS43 KIND 260009
RWRIN

WEATHER ROUNDUP FOR INDIANA
NATIONAL WEATHER SERVICE INDIANAPOLIS IN
800 PM EDT SAT MAR 25 2017

NOTE: "FAIR" INDICATES FEW OR NO CLOUDS BELOW 12,000 FEET WITH NO
SIGNIFICANT WEATHER AND/OR OBSTRUCTIONS TO VISIBILITY.

* - STATION DOES NOT REPORT WEATHER SUCH AS PRECIPITATION OR FOG.

+ - STATION NOT QUALITY CONTROLLED BY THE NATIONAL WEATHER SERVICE.
    USE DATA WITH CAUTION...ESPECIALLY DEWPOINT AND RELATIVE
    HUMIDITY OBSERVATIONS.

INZ001>003-010>013-019-020-260100-
NORTHWEST INDIANA

CITY           SKY/WX    TMP DP  RH WIND       PRES   REMARKS
GARY /AIRPORT/ CLOUDY    46  45  93 CALM      29.98R FOG
KNOX *+        CLOUDY    57  43  58 E12       29.98R
LA PORTE +     CLOUDY    54  51  92 E12       30.00R FOG
6HR MIN TEMP:  54; 6HR MAX TEMP:  63; 6HR PCP:  0.06;

MICHIGAN CITY+ CLOUDY    54  52  94 E7        29.99S
MONTICELLO +   CLOUDY    62  56  81 CALM      29.94F
6HR MIN TEMP:  62; 6HR MAX TEMP:  74;

RENSSELAER +   CLOUDY    59  57  94 E6        29.95R
VALPARAISO     CLOUDY    57  55  93 E12       29.98R FOG
6HR MIN TEMP:  57; 6HR MAX TEMP:  68; 6HR PCP:  0.05;


$$

LMZ046-743>745-260100-
SOUTHERN LAKE MICHIGAN

STATION/POSITION TIME  TEMP    WIND        PRES    WAVE
                       AIR SEA DIR/SP/G            HT
                 (UTC) (F)     (DEG/KT/KT) (MB)    (FT)
BURNS HARBOR     2340   43     270/  2/  3 1015.6R
MICHIGAN CITY    2340   56     100/ 11/ 14   N/A

$$

INZ004-005-014>016-021>024-260100-
NORTH CENTRAL INDIANA

CITY           SKY/WX    TMP DP  RH WIND       PRES   REMARKS
GOSHEN         LGT RAIN  50  44  80 E9        30.06R
6HR MIN TEMP:  50; 6HR MAX TEMP:  67; 6HR PCP:  0.02;

LOGANSPORT +   RAIN      61  59  94 CALM      29.98R
PERU/GRISSOM   DRIZZLE   60  55  82 NE15      29.95R
6HR MIN TEMP:  60; 6HR MAX TEMP:  75; 6HR PCP:  0.02;

ROCHESTER +    CLOUDY    57  54  88 E12       29.99S
SOUTH BEND     RAIN      52  49  89 SE14      30.05R FOG
6HR MIN TEMP:  52; 6HR MAX TEMP:  59; 6HR PCP:  0.09;

WARSAW +       RAIN      50  46  87 NE14      30.03R

$$

INZ006>009-017-018-025>027-260100-
NORTHEAST INDIANA

CITY           SKY/WX    TMP DP  RH WIND       PRES   REMARKS
ANGOLA *+      MOCLDY    45  43  93 E17       30.07R
AUBURN +       CLOUDY    45  41  87 E16G24    30.07S
FORT WAYNE     MOCLDY    49  43  80 E20       30.04R
6HR MIN TEMP:  49; 6HR MAX TEMP:  73; 6HR PCP:  0.01;

HUNTINGTON +   CLOUDY    50  46  84 E14G21    30.01R
6HR MIN TEMP:  50; 6HR MAX TEMP:  75; 6HR PCP:  0.10;

KENDALLVILLE + CLOUDY    45  42  91 E15G22    30.05S

$$

INZ028-029-035-036-043>045-051>053-260100-
WEST CENTRAL INDIANA

CITY           SKY/WX    TMP DP  RH WIND       PRES   REMARKS
CRAWFORDSVL +  CLOUDY    66  50  57 S15G22    29.95R
6HR MIN TEMP:  65; 6HR MAX TEMP:  70;

GREENCASTLE +  CLOUDY    63  52  67 SE8       29.96R
LAFAYETTE      CLOUDY    62  56  80 CALM      29.94R
6HR MIN TEMP:  62; 6HR MAX TEMP:  72; 6HR PCP: TRACE;

TERRE HAUTE    CLOUDY    66  53  63 S13G20    29.93R
6HR MIN TEMP:  64; 6HR MAX TEMP:  73; 6HR PCP: TRACE;


$$

INZ030>032-037>040-046>048-054>057-064-065-260100-
CENTRAL INDIANA

CITY           SKY/WX    TMP DP  RH WIND       PRES   REMARKS
CP ATTERBURY + CLOUDY    63  54  72 W3        29.97S
COLUMBUS       MOCLDY    66  54  63 W9        29.97R
FRANKFORT +    CLOUDY    64  59  82 S10       29.98R
6HR MIN TEMP:  64; 6HR MAX TEMP:  76; 6HR PCP:  0.21;

GREENWOOD *+   CLOUDY    61  58  91 NW5       29.97F
6HR MIN TEMP:  60; 6HR MAX TEMP:  75;

INDIANAPOLIS   LGT RAIN  59  56  89 SW5       29.97R FOG
6HR MIN TEMP:  59; 6HR MAX TEMP:  75; 6HR PCP:  0.38;

-EAGLE CREEK   RAIN      60  56  86 VRB3      29.98R FOG
6HR MIN TEMP:  60; 6HR MAX TEMP:  75; 6HR PCP:  0.31;

KOKOMO +       CLOUDY    63  57  81 N9        29.96S
6HR MIN TEMP:  63; 6HR MAX TEMP:  72;

MARION +       CLOUDY    67  52  58 NE13      29.96F
MT COMFORT *+  CLOUDY    61  55  82 W14       29.99R
SHELBYVILLE    CLOUDY    66  52  60 W15       29.97R
6HR MIN TEMP:  66; 6HR MAX TEMP:  78;

ZIONSVILLE +   RAIN      60  56  87 S12G21    30.01R
6HR MIN TEMP:  60; 6HR MAX TEMP:  72; 6HR PCP:  0.26;


$$

INZ033-034-041-042-049-050-058-059-260100-
EAST CENTRAL INDIANA

CITY           SKY/WX    TMP DP  RH WIND       PRES   REMARKS
MUNCIE         CLOUDY    71  51  49 SE13      29.97R
6HR MIN TEMP:  71; 6HR MAX TEMP:  77;

RICHMOND +     CLOUDY    63  52  67 SE10      30.01S

$$

INZ060-061-067>069-081>083-085>088-260100-
SOUTHWEST INDIANA

CITY           SKY/WX    TMP DP  RH WIND       PRES   REMARKS
EVANSVILLE     CLOUDY    67  52  58 S6        29.92R
6HR MIN TEMP:  67; 6HR MAX TEMP:  74; 6HR PCP: TRACE;

HUNTINGBURG *+ CLOUDY    67  55  65 SE14      29.95R
6HR MIN TEMP:  67; 6HR MAX TEMP:  75; 6HR PCP: TRACE;

WASHINGTON +   CLOUDY    65  51  61 CALM      29.93R
6HR MIN TEMP:  65; 6HR MAX TEMP:  73;


$$

INZ062-063-066-070>080-084-089>092-260100-
SOUTH CENTRAL AND SOUTHEAST INDIANA

CITY           SKY/WX    TMP DP  RH WIND       PRES   REMARKS
BLOOMINGTON    LGT RAIN  61  56  83 SE10G21   29.95S
6HR MIN TEMP:  61; 6HR MAX TEMP:  75; 6HR PCP:  0.11;

MADISON *+     CLOUDY    70  45  40 S8        30.01R
SEYMOUR +      CLOUDY    72  50  46 S13       29.96R

$$





USA.gov is the U.S. government's official web portal to all federal, state and local government web resources and services.